STARLINK-4554, 53626

Orbit data source: Space-Track

STARLINK-4554, 53626 is a payload satellite owned by SpaceX/Seattle (US) in LEO that was launched on Sun, 28 Aug 2022 UTC via an FALCON 9 launch vehicle from the Air Force Eastern Test Range (AFETR). Payload-class satellites include a variety of spacecraft equipped with specific instruments for various scientific and technological missions. These include communications satellites like Starlink; space stations such as the ISS; scientific satellites like the Hubble; Earth observation satellites from companies like Planet Labs, Umbra, and HawkEye 360; GPS; miniature CubeSats for education and research; and military/defense satellites.

Loading next visibility...
Identifier
53626, 2022-104AQ
Orbit
LEO
Country
Flag of USUS
Related business
Manufacturer
SpaceX/Seattle
Mission
Operational Commercial Communications
Bus & Motor
STARLINK, Unknown motor
Mass
300 kg wet, ~290 kg dry
Launch date (UTC)
2022-08-28 (3 years ago)
Launch vehicle
FALCON 9
Launch site
Air Force Eastern Test Range (AFETR)
Object type
Payload
Rocket body
Debris
Shape & HBR
Box + 1 Pan, 10.1 m
Radar Cross Section
13.562 m², Large (>1 m²)

Expand to show TLE details & history
Last TLE update: 1 day ago

TLE from 1 day ago
0 STARLINK-4554
1 53626U 22104AQ  25301.16689407  .00001351  00000-0  10296-3 0  9994
2 53626  53.2168 108.6798 0001519 102.5925 257.5238 15.08842628175759
Epoch: 2025-10-28T04:00Z
TLE epoch observation values (Epoch: 2025-10-28T04:00:19.647Z)
Latitude
0.00004°
Longitude
11.83969°
Altitude
540.86 km
Speed
7.593 km/s
True Right ascension
07h 14m 43s
True Declination
0° 00' 00"
Sunlit
Object was in daylight at epoch
Visualization orbit readout
Latitude
Unknown
Longitude
Unknown
Altitude
Unknown
Speed
Unknown
Apparent Right ascension
Unknown
Apparent Declination
Unknown
Sunlit
N/A
Visualization observer readout
Local Sidereal Time
03:28:21
Azimuth
Unknown
Elevation
Unknown
Doppler factor
Unknown
Orbital elements
Apogee altitude
541.031 km
Perigee altitude
538.93 km
Semi-major axis
6,918.117 km
Eccentricity
0.00015
Inclination
53.2168°
RAAN
108.6798°
Arg. of periapsis
102.5925°
True anomaly
257.50681°
Mean anomaly
257.5238°
Eccentric anomaly
257.5153°
Mean motion
3.77191 °/min
Orbital period
95.44 mins
BSTAR
0.00010296
Loading maneuver chart data...
Computing Atmospheric mass density...
Loading historical data...
Loading historical data...
Loading historical data...
Loading historical data...
Loading historical data...
Loading historical data...
Loading historical data...

Documentation

Showing up to 5 results
|